Regional Weather Roundup
Issued by NWS

Home | Current Version | Previous Version | Text Only | Print | Product List | Glossary On
Versions: 1 2 3 4 5 6 7 8 9 10 11 12 13 14 15 16 17 18 19 20 21 22 23 24 25 26 27 28 29 30 31 32 33 34 35 36 37 38 39 40 41 42 43 44 45 46 47 48 49 50
000
ASUS43 KIND 190009
RWRIN

WEATHER ROUNDUP FOR INDIANA
NATIONAL WEATHER SERVICE INDIANAPOLIS IN
800 PM EDT FRI APR 18 2014

NOTE: "FAIR" INDICATES FEW OR NO CLOUDS BELOW 12,000 FEET WITH NO
SIGNIFICANT WEATHER AND/OR OBSTRUCTIONS TO VISIBILITY.

* - STATION DOES NOT REPORT WEATHER SUCH AS PRECIPITATION OR FOG.

+ - STATION NOT QUALITY CONTROLLED BY THE NATIONAL WEATHER SERVICE.
    USE DATA WITH CAUTION...ESPECIALLY DEWPOINT AND RELATIVE
    HUMIDITY OBSERVATIONS.

INZ001>003-010>013-019-020-190100-
NORTHWEST INDIANA

CITY           SKY/WX    TMP DP  RH WIND       PRES   REMARKS
GARY /AIRPORT/ CLEAR     41  32  70 NE10      30.35S
LA PORTE +     CLEAR     42  32  66 N15       30.32S
6HR MIN TEMP:  42; 6HR MAX TEMP:  53;

MICHIGAN CITY+ CLEAR     39  30  70 NE7       30.34S
MONTICELLO +   CLEAR     57  36  45 N17       30.25S
RENSSELAER +   CLEAR     52  34  50 N12       30.29R
VALPARAISO     CLEAR     42  32  67 N13       30.32S
6HR MIN TEMP:  42; 6HR MAX TEMP:  53;


$$

LMZ046-743>745-190100-
SOUTHERN LAKE MICHIGAN

STATION/POSITION TIME  TEMP WIND        PRES
                       AIR  DIR/SP/G
                 (UTC) (F)  (DEG/KT/KT) (MB)
MICHIGAN CITY    0000   38   20/ 17/ 20   N/A

$$

INZ004-005-014>016-021>024-190100-
NORTH CENTRAL INDIANA

CITY           SKY/WX    TMP DP  RH WIND       PRES   REMARKS
ELKHART        CLEAR     48  32  53 N8        30.30S
GOSHEN         CLEAR     54  36  50 NW14      30.28R
6HR MIN TEMP:  54; 6HR MAX TEMP:  65;

LOGANSPORT +   CLEAR     57  32  38 N14       30.26S
PERU/GRISSOM   CLEAR     60  35  39 N12       30.24S
6HR MIN TEMP:  60; 6HR MAX TEMP:  68;

ROCHESTER +    CLEAR     55  34  44 N9        30.27S
SOUTH BEND     CLEAR     45  33  63 N16       30.32
6HR MIN TEMP:  45; 6HR MAX TEMP:  59;

WARSAW +       CLEAR     55  36  47 N12       30.27R

$$

INZ006>009-017-018-025>027-190100-
NORTHEAST INDIANA

CITY           SKY/WX    TMP DP  RH WIND       PRES   REMARKS
ANGOLA *+      CLEAR     57  34  41 N10       30.25R
AUBURN +       CLEAR     59  30  33 NW7       30.24S
FORT WAYNE     PTCLDY    60  30  32 NW13      30.24R
6HR MIN TEMP:  60; 6HR MAX TEMP:  69;


$$

INZ028-029-035-036-043>045-051>053-190100-
WEST CENTRAL INDIANA

CITY           SKY/WX    TMP DP  RH WIND       PRES   REMARKS
GREENCASTLE +  CLEAR     63  37  39 N9        30.22S
LAFAYETTE      CLEAR     59  35  40 N15       30.24S
6HR MIN TEMP:  59; 6HR MAX TEMP:  67;

TERRE HAUTE    CLEAR     66  40  38 N6        30.21F
6HR MIN TEMP:  66; 6HR MAX TEMP:  70;


$$

INZ030>032-037>040-046>048-054>057-064-065-190100-
CENTRAL INDIANA

CITY           SKY/WX    TMP DP  RH WIND       PRES   REMARKS
CP ATTERBURY + CLEAR     63  41  45 N5        30.21R
INDIANAPOLIS   PTCLDY    63  39  41 N9        30.21S
6HR MIN TEMP:  63; 6HR MAX TEMP:  70;

-EAGLE CREEK   CLEAR     64  37  36 N6        30.21F
6HR MIN TEMP:  64; 6HR MAX TEMP:  69;

KOKOMO *+        N/A    N/A N/A N/A MISG        N/A
MARION +       CLEAR     62  35  35 N9        30.23S
MT COMFORT *+  CLEAR     63  43  48 N10       30.22S
SHELBYVILLE    MOCLDY    68  41  37 N6        30.20S
6HR MIN TEMP:  68; 6HR MAX TEMP:  73;

ZIONSVILLE +   CLEAR     64  37  37 N8        30.23S
6HR MIN TEMP:  64; 6HR MAX TEMP:  69;


$$

INZ033-034-041-042-049-050-058-059-190100-
EAST CENTRAL INDIANA

CITY           SKY/WX    TMP DP  RH WIND       PRES   REMARKS
MUNCIE         CLEAR     62  39  42 NW9       30.22S
6HR MIN TEMP:  62; 6HR MAX TEMP:  69;


$$

INZ060-061-067>069-081>083-085>088-190100-
SOUTHWEST INDIANA

CITY           SKY/WX    TMP DP  RH WIND       PRES   REMARKS
EVANSVILLE     CLEAR     70  41  34 N7        30.20S
6HR MIN TEMP:  70; 6HR MAX TEMP:  73;

HUNTINGBURG *+ CLEAR     66  39  37 N7        30.20R
6HR MIN TEMP:  66; 6HR MAX TEMP:  72;

WASHINGTON +   CLEAR     65  46  50 N3        30.20R
6HR MIN TEMP:  65; 6HR MAX TEMP:  71;


$$

INZ062-063-066-070>080-084-089>092-190100-
SOUTH CENTRAL AND SOUTHEAST INDIANA

CITY           SKY/WX    TMP DP  RH WIND       PRES   REMARKS
BLOOMINGTON    PTCLDY    63  39  41 N3        30.20S
6HR MIN TEMP:  62; 6HR MAX TEMP:  73;


$$




USA.gov is the U.S. government's official web portal to all federal, state and local government web resources and services.